TimeEDT,TemperatureF,Dew PointF,Humidity,Sea Level PressureIn,VisibilityMPH,Wind Direction,Wind SpeedMPH,Gust SpeedMPH,PrecipitationIn,Events,Conditions,WindDirDegrees,DateUTC
12:52 AM,55.9,44.1,64,30.09,10.0,NE,11.5,-,N/A,,Clear,50,2013-09-14 04:52:00
1:52 AM,54.0,44.1,69,30.09,10.0,ENE,9.2,-,N/A,,Clear,60,2013-09-14 05:52:00
2:52 AM,53.1,44.1,71,30.10,10.0,NE,6.9,-,N/A,,Clear,40,2013-09-14 06:52:00
3:52 AM,53.1,45.0,74,30.11,10.0,NNE,8.1,-,N/A,,Clear,30,2013-09-14 07:52:00
4:52 AM,51.1,45.0,80,30.11,10.0,NE,6.9,-,N/A,,Clear,40,2013-09-14 08:52:00
5:52 AM,51.1,45.0,80,30.12,10.0,NE,6.9,-,N/A,,Clear,40,2013-09-14 09:52:00
6:52 AM,51.1,44.1,77,30.12,10.0,NE,8.1,-,N/A,,Clear,50,2013-09-14 10:52:00
7:52 AM,50.0,45.0,83,30.15,10.0,NNE,8.1,-,N/A,,Clear,30,2013-09-14 11:52:00
8:52 AM,53.1,45.0,74,30.16,10.0,NE,5.8,-,N/A,,Clear,40,2013-09-14 12:52:00
9:52 AM,55.9,44.1,64,30.17,10.0,NE,9.2,-,N/A,,Partly Cloudy,50,2013-09-14 13:52:00
10:52 AM,59.0,42.1,53,30.18,10.0,NE,9.2,-,N/A,,Scattered Clouds,50,2013-09-14 14:52:00
11:52 AM,61.0,39.9,46,30.17,10.0,NNE,5.8,-,N/A,,Clear,20,2013-09-14 15:52:00
12:52 PM,64.0,39.9,41,30.17,10.0,North,6.9,-,N/A,,Scattered Clouds,350,2013-09-14 16:52:00
1:52 PM,66.0,39.9,38,30.15,10.0,NNE,5.8,-,N/A,,Scattered Clouds,20,2013-09-14 17:52:00
2:52 PM,68.0,39.0,35,30.13,10.0,NE,6.9,-,N/A,,Partly Cloudy,50,2013-09-14 18:52:00
3:52 PM,69.1,39.9,35,30.12,10.0,North,5.8,-,N/A,,Partly Cloudy,360,2013-09-14 19:52:00
4:52 PM,70.0,39.0,32,30.10,10.0,Calm,Calm,-,N/A,,Partly Cloudy,0,2013-09-14 20:52:00
5:52 PM,69.1,39.0,33,30.10,10.0,East,4.6,-,N/A,,Partly Cloudy,90,2013-09-14 21:52:00
6:52 PM,69.1,37.9,32,30.10,10.0,ENE,4.6,-,N/A,,Partly Cloudy,60,2013-09-14 22:52:00
7:52 PM,64.0,42.1,45,30.11,10.0,East,4.6,-,N/A,,Scattered Clouds,90,2013-09-14 23:52:00
8:52 PM,60.1,46.0,60,30.12,10.0,SE,4.6,-,N/A,,Scattered Clouds,130,2013-09-15 00:52:00
9:52 PM,57.9,46.9,67,30.13,10.0,SE,3.5,-,N/A,,Scattered Clouds,130,2013-09-15 01:52:00
10:52 PM,57.9,46.0,65,30.12,10.0,Calm,Calm,-,N/A,,Scattered Clouds,0,2013-09-15 02:52:00
11:52 PM,55.9,45.0,67,30.12,10.0,ESE,4.6,-,N/A,,Scattered Clouds,120,2013-09-15 03:52:00